| time (UTC) | temp F | wind direction | speed knots | gust knots | rain 1hr in | rain 24hr in | rain mn in | humidity % | barometer mb |
| 20260504090107 | 72 | 235 | 3.5 | 9.6 | 0.00 | 0.00 | 0.00 | 38 | 1006.9 |
| 20260504081048 | 70 | 270 | 4.3 | 9.6 | 0.00 | 0.00 | 0.00 | 40 | 1006.8 |
| 20260504045036 | 60 | 207 | 3.5 | 9.6 | 0.00 | 0.00 | 0.00 | 50 | 1006.1 |
| 20260504044033 | 60 | 196 | 4.3 | 8.7 | 0.00 | 0.00 | 0.00 | 50 | 1006.1 |
| 20260504043029 | 59 | 193 | 4.3 | 9.6 | 0.00 | 0.00 | 0.00 | 50 | 1006.0 |
| 20260504042026 | 58 | 193 | 3.5 | 7.0 | 0.00 | 0.00 | 0.00 | 52 | 1006.0 |
| 20260504041022 | 58 | 160 | 3.5 | 5.2 | 0.00 | 0.00 | 0.00 | 52 | 1006.0 |
| 20260504040018 | 58 | 184 | 3.5 | 7.0 | 0.00 | 0.00 | 0.00 | 52 | 1006.0 |
| 20260504035115 | 58 | 149 | 7.0 | 9.6 | 0.00 | 0.00 | 0.00 | 51 | 1005.7 |
| 20260504034131 | 59 | 165 | 5.2 | 8.7 | 0.00 | 0.00 | 0.00 | 51 | 1005.8 |
| 20260504033109 | 59 | 176 | 5.2 | 8.7 | 0.00 | 0.00 | 0.00 | 50 | 1005.8 |
| 20260504032125 | 59 | 168 | 4.3 | 7.0 | 0.00 | 0.00 | 0.00 | 49 | 1005.8 |
| 20260504031100 | 59 | 184 | 3.5 | 7.0 | 0.00 | 0.00 | 0.00 | 47 | 1006.0 |
| 20260504030056 | 59 | 184 | 4.3 | 10.4 | 0.00 | 0.00 | 0.00 | 48 | 1005.9 |
| 20260504025053 | 59 | 180 | 4.3 | 7.8 | 0.00 | 0.00 | 0.00 | 47 | 1006.0 |
| 20260504024049 | 59 | 202 | 4.3 | 8.7 | 0.00 | 0.00 | 0.00 | 47 | 1005.9 |
| 20260504023046 | 59 | 178 | 4.3 | 9.6 | 0.00 | 0.00 | 0.00 | 50 | 1006.0 |
| 20260504022042 | 58 | 168 | 5.2 | 8.7 | 0.00 | 0.00 | 0.00 | 50 | 1005.9 |
| 20260504021039 | 58 | 174 | 6.1 | 7.8 | 0.00 | 0.00 | 0.00 | 50 | 1005.8 |
| 20260504020035 | 58 | 165 | 6.1 | 9.6 | 0.00 | 0.00 | 0.00 | 50 | 1005.9 |
| 20260504015031 | 59 | 164 | 5.2 | 7.8 | 0.00 | 0.00 | 0.00 | 49 | 1005.9 |
| 20260504014028 | 59 | 163 | 5.2 | 8.7 | 0.00 | 0.00 | 0.00 | 49 | 1006.0 |
| 20260504013024 | 59 | 150 | 6.1 | 9.6 | 0.00 | 0.00 | 0.00 | 47 | 1005.9 |
| 20260504012021 | 59 | 173 | 7.0 | 10.4 | 0.00 | 0.00 | 0.00 | 46 | 1005.9 |
| 20260504011117 | 60 | 164 | 7.0 | 11.3 | 0.00 | 0.00 | 0.00 | 46 | 1006.0 |
| 20260504010113 | 60 | 183 | 7.0 | 10.4 | 0.00 | 0.00 | 0.00 | 45 | 1006.0 |
| 20260504005130 | 59 | 159 | 7.8 | 10.4 | 0.00 | 0.00 | 0.00 | 45 | 1005.8 |
| 20260504004107 | 59 | 162 | 7.0 | 9.6 | 0.00 | 0.00 | 0.00 | 45 | 1005.9 |
| 20260504003128 | 59 | 158 | 7.0 | 10.4 | 0.00 | 0.00 | 0.00 | 44 | 1005.8 |
| 20260504002059 | 59 | 166 | 7.8 | 12.2 | 0.00 | 0.00 | 0.00 | 44 | 1005.9 |
| 20260504001056 | 60 | 180 | 6.1 | 9.6 | 0.00 | 0.00 | 0.00 | 43 | 1006.0 |
| 20260504000052 | 60 | 188 | 6.1 | 9.6 | 0.00 | 0.00 | 0.00 | 42 | 1005.9 |
| 20260503235048 | 61 | 172 | 6.1 | 10.4 | 0.00 | 0.00 | 0.00 | 40 | 1006.0 |
| 20260503234105 | 62 | 164 | 7.0 | 10.4 | 0.00 | 0.00 | 0.00 | 39 | 1006.1 |
| 20260503233042 | 62 | 162 | 7.0 | 11.3 | 0.00 | 0.00 | 0.00 | 37 | 1006.2 |
| 20260503232037 | 63 | 158 | 7.0 | 11.3 | 0.00 | 0.00 | 0.00 | 35 | 1006.1 |
| 20260503231055 | 63 | 159 | 7.0 | 11.3 | 0.00 | 0.00 | 0.00 | 34 | 1006.3 |
| 20260503230030 | 63 | 176 | 7.0 | 10.4 | 0.00 | 0.00 | 0.00 | 34 | 1006.3 |
| 20260503225048 | 62 | 177 | 7.0 | 9.6 | 0.00 | 0.00 | 0.00 | 36 | 1006.4 |
| 20260503224044 | 62 | 149 | 6.1 | 8.7 | 0.00 | 0.00 | 0.00 | 37 | 1006.5 |
| 20260503223020 | 62 | 153 | 5.2 | 7.0 | 0.00 | 0.00 | 0.00 | 34 | 1006.5 |
| 20260503222118 | 63 | 154 | 4.3 | 7.0 | 0.00 | 0.00 | 0.00 | 32 | 1006.5 |
| 20260503221113 | 63 | 186 | 6.1 | 8.7 | 0.00 | 0.00 | 0.00 | 31 | 1006.6 |
| 20260503220109 | 63 | 169 | 6.1 | 9.6 | 0.00 | 0.00 | 0.00 | 31 | 1006.6 |
| 20260503215126 | 63 | 173 | 6.1 | 8.7 | 0.00 | 0.00 | 0.00 | 30 | 1006.7 |
| 20260503214102 | 64 | 170 | 6.1 | 7.8 | 0.00 | 0.00 | 0.00 | 30 | 1006.6 |
| 20260503213058 | 64 | 176 | 5.2 | 7.8 | 0.00 | 0.00 | 0.00 | 30 | 1006.7 |
| 20260503212055 | 64 | 173 | 5.2 | 7.8 | 0.00 | 0.00 | 0.00 | 30 | 1006.6 |
| 20260503211051 | 64 | 167 | 4.3 | 7.0 | 0.00 | 0.00 | 0.00 | 30 | 1006.6 |
| 20260503210048 | 65 | 177 | 4.3 | 7.0 | 0.00 | 0.00 | 0.00 | 32 | 1006.7 |
| 20260503205044 | 65 | 151 | 5.2 | 7.8 | 0.00 | 0.00 | 0.00 | 31 | 1006.7 |
| 20260503204046 | 66 | 170 | 6.1 | 9.6 | 0.00 | 0.00 | 0.00 | 30 | 1006.7 |
| 20260503203037 | 66 | 172 | 5.2 | 8.7 | 0.00 | 0.00 | 0.00 | 29 | 1006.7 |
| 20260503202033 | 67 | 158 | 6.1 | 9.6 | 0.00 | 0.00 | 0.00 | 28 | 1006.7 |
| 20260503201030 | 67 | 161 | 5.2 | 7.8 | 0.00 | 0.00 | 0.00 | 27 | 1006.7 |
| 20260503200026 | 67 | 154 | 5.2 | 7.0 | 0.00 | 0.00 | 0.00 | 27 | 1006.7 |
| 20260503195022 | 68 | 161 | 5.2 | 9.6 | 0.00 | 0.00 | 0.00 | 25 | 1006.8 |
| 20260503194019 | 68 | 152 | 5.2 | 9.6 | 0.00 | 0.00 | 0.00 | 24 | 1006.8 |
| 20260503193120 | 69 | 172 | 5.2 | 7.0 | 0.00 | 0.00 | 0.00 | 24 | 1006.7 |
| 20260503192112 | 69 | 165 | 6.1 | 7.8 | 0.00 | 0.00 | 0.00 | 24 | 1006.6 |
| 20260503191108 | 69 | 185 | 6.1 | 9.6 | 0.00 | 0.00 | 0.00 | 24 | 1006.8 |
| 20260503190104 | 70 | 156 | 5.2 | 8.7 | 0.00 | 0.00 | 0.00 | 23 | 1006.7 |
| 20260503185100 | 71 | 158 | 5.2 | 7.8 | 0.00 | 0.00 | 0.00 | 23 | 1006.6 |
| 20260503184057 | 72 | 156 | 5.2 | 8.7 | 0.00 | 0.00 | 0.00 | 21 | 1006.5 |
| 20260503183114 | 73 | 153 | 5.2 | 8.7 | 0.00 | 0.00 | 0.00 | 19 | 1006.5 |
| 20260503182050 | 74 | 177 | 4.3 | 9.6 | 0.00 | 0.00 | 0.00 | 22 | 1006.5 |
| 20260503181047 | 75 | 184 | 4.3 | 7.0 | 0.00 | 0.00 | 0.00 | 22 | 1006.4 |
| 20260503175040 | 78 | 198 | 2.6 | 8.7 | 0.00 | 0.00 | 0.00 | 16 | 1006.3 |
| 20260503174035 | 80 | 187 | 2.6 | 5.2 | 0.00 | 0.00 | 0.00 | 14 | 1006.3 |
| 20260503173113 | 81 | 189 | 2.6 | 7.0 | 0.00 | 0.00 | 0.00 | 13 | 1006.2 |
| 20260503172028 | 82 | 250 | 2.6 | 5.2 | 0.00 | 0.00 | 0.00 | 13 | 1006.3 |
| 20260503171045 | 0 | 0.0 | 0.0 | 0.00 | 0.00 | 0.00 | 1006.3 | ||
| 20260503160140 | 0 | 0.0 | 0.0 | 0.00 | 0.00 | 0.00 | 1006.6 | ||
| 20260503140116 | 0 | 0.0 | 0.0 | 0.00 | 0.00 | 0.00 | 1007.6 | ||
| 20260503131058 | 0 | 0.0 | 0.0 | 0.00 | 0.00 | 0.00 | 1008.3 | ||
| 20260503110110 | 0 | 0.0 | 0.0 | 0.00 | 0.00 | 0.00 | 1009.6 |